LW9ERO Weather Reports


time (UTC)temp
F
wind
direction
speed
knots
gust
knots
rain 1hr
in
rain 24hr
in
rain mn
in
humidity
%
barometer
mb
20260508185308 53 248 15.6 23.5 0.00 0.00 0.00 47 1008.5
20260508184303 53 270 14.8 25.2 0.00 0.00 0.00 48 1008.3
20260508183255 54 270 10.4 23.5 0.00 0.00 0.00 50 1008.2
20260508182249 54 248 13.0 21.7 0.00 0.00 0.00 50 1008.3
20260508181243 54 338 13.0 26.1 0.00 0.00 0.00 50 1008.2
20260508180237 53 225 13.0 23.5 0.00 0.00 0.00 50 1008.3
20260508175231 54 225 12.2 23.5 0.00 0.00 0.00 51 1008.5
20260508174225 53 225 10.4 26.1 0.00 0.00 0.00 51 1008.4
20260508173220 53 293 14.8 23.5 0.00 0.00 0.00 51 1008.3
20260508171206 53 270 13.9 25.2 0.00 0.00 0.00 53 1008.5
20260508170200 53 293 7.0 26.1 0.00 0.00 0.00 55 1008.3
20260508165154 52 270 10.4 27.8 0.00 0.00 0.00 54 1008.5
20260508164147 53 270 9.6 23.5 0.00 0.00 0.00 57 1008.5
20260508163141 53 248 9.6 23.5 0.00 0.00 0.00 57 1008.6
20260508162135 52 248 13.0 23.5 0.00 0.00 0.00 57 1008.7
20260508161128 51 270 13.0 23.5 0.00 0.00 0.00 58 1008.8
20260508160122 51 293 13.0 21.7 0.00 0.00 0.00 59 1008.9
20260508155120 51 270 9.6 23.5 0.00 0.00 0.00 60 1009.0
20260508154110 51 225 16.5 23.5 0.00 0.00 0.00 59 1008.9
20260508153104 51 248 9.6 23.5 0.00 0.00 0.00 61 1009.2
20260508152058 50 248 14.8 23.5 0.00 0.00 0.00 61 1009.0
20260508151052 50 270 9.6 23.5 0.00 0.00 0.00 61 1009.4
20260508150100 50 270 12.2 20.9 0.00 0.00 0.00 62 1009.2
20260508145039 49 293 13.0 23.5 0.00 0.00 0.00 62 1009.1
20260508144035 49 270 14.8 23.5 0.00 0.00 0.00 63 1009.3
20260508143032 49 203 11.3 23.5 0.00 0.00 0.00 64 1009.3
20260508142040 49 315 9.6 23.5 0.00 0.00 0.00 64 1009.4
20260508141014 49 225 12.2 26.1 0.00 0.00 0.00 65 1009.6
20260508140008 48 270 13.0 25.2 0.00 0.00 0.00 64 1009.7
20260508135003 48 270 9.6 23.5 0.00 0.00 0.00 66 1009.4
20260508133955 46 293 6.1 19.1 0.00 0.00 0.00 69 1009.4
20260508132949 46 338 12.2 21.7 0.00 0.00 0.00 68 1009.5
20260508131943 46 248 12.2 25.2 0.00 0.00 0.00 67 1009.4
20260508130937 46 270 9.6 26.1 0.00 0.00 0.00 68 1009.3
20260508125931 46 270 14.8 21.7 0.00 0.00 0.00 68 1009.2
20260508124925 47 270 12.2 23.5 0.00 0.00 0.00 68 1009.0
20260508123920 47 293 13.0 26.9 0.00 0.00 0.00 69 1009.0
20260508122913 47 293 18.2 26.9 0.00 0.00 0.00 69 1009.1
20260508121906 47 315 9.6 23.5 0.00 0.00 0.00 71 1008.7
20260508120901 48 270 12.2 20.9 0.00 0.00 0.00 69 1008.5
20260508115853 47 293 7.0 23.5 0.00 0.00 0.00 70 1008.7
20260508114847 47 225 9.6 20.0 0.00 0.00 0.00 70 1008.7
20260508113841 47 270 10.4 20.9 0.00 0.00 0.00 73 1008.6
20260508112835 46 270 7.8 20.0 0.00 0.00 0.00 74 1008.5
20260508111830 46 293 8.7 23.5 0.00 0.00 0.00 74 1008.4
20260508110823 46 270 14.8 23.5 0.00 0.00 0.00 74 1008.3
20260508105818 46 293 7.8 20.0 0.00 0.00 0.00 75 1008.2
20260508104811 47 225 13.0 25.2 0.00 0.00 0.00 76 1008.0
20260508102757 47 270 10.4 21.7 0.00 0.00 0.00 77 1007.7
20260508101752 47 203 7.0 20.9 0.00 0.00 0.00 78 1007.7
20260508100745 47 225 7.0 19.1 0.00 0.00 0.00 79 1007.6
20260508095740 47 248 11.3 23.5 0.00 0.00 0.00 79 1007.4
20260508094734 47 225 5.2 20.9 0.00 0.00 0.00 79 1007.4
20260508093727 47 248 8.7 23.5 0.00 0.00 0.00 79 1007.3
20260508092722 47 270 9.6 20.9 0.00 0.00 0.00 79 1007.2
20260508091714 47 248 10.4 21.7 0.00 0.00 0.00 80 1006.9
20260508090708 47 270 9.6 23.5 0.00 0.00 0.00 80 1006.9
20260508085702 47 225 7.0 19.1 0.00 0.00 0.00 81 1007.0
20260508084656 47 270 8.7 21.7 0.00 0.00 0.00 82 1006.9
20260508083649 47 225 10.4 20.0 0.00 0.00 0.00 81 1006.7
20260508082644 47 225 9.6 20.9 0.00 0.00 0.00 82 1006.9
20260508081637 47 270 7.0 21.7 0.00 0.00 0.00 82 1006.8
20260508080631 47 248 12.2 20.0 0.00 0.00 0.00 82 1006.7
20260508075625 46 248 9.6 18.2 0.00 0.00 0.00 85 1006.8
20260508074620 46 270 7.8 15.6 0.00 0.00 0.00 88 1006.8
20260508073614 46 248 8.7 17.4 0.00 0.00 0.00 89 1006.7
20260508072606 46 203 6.1 15.6 0.00 0.00 0.00 89 1006.8
20260508071600 46 248 8.7 20.9 0.00 0.00 0.00 87 1006.8
20260508070554 47 225 9.6 20.0 0.00 0.00 0.00 84 1007.2
20260508065548 48 293 7.0 20.9 0.00 0.00 0.00 77 1007.1
20260508064542 48 270 9.6 26.1 0.00 0.00 0.00 75 1007.0
20260508063535 48 270 11.3 23.5 0.00 0.00 0.00 74 1007.1
20260508062530 48 270 7.8 18.2 0.00 0.00 0.00 74 1007.1
20260508061523 49 248 9.6 20.0 0.00 0.00 0.00 73 1007.3
20260508060520 49 225 10.4 19.1 0.00 0.00 0.00 74 1007.3
20260508055518 49 248 13.0 21.7 0.00 0.01 0.00 75 1007.4
20260508054505 49 248 8.7 20.0 0.00 0.01 0.00 74 1007.6
20260508053458 49 248 8.7 18.2 0.00 0.01 0.00 73 1007.4
20260508052452 49 248 8.7 25.2 0.00 0.01 0.00 72 1007.5
20260508051446 49 225 11.3 25.2 0.00 0.01 0.00 71 1007.2
20260508050439 49 248 9.6 18.2 0.00 0.01 0.00 73 1007.3
20260508045434 49 270 9.6 23.5 0.00 0.01 0.00 74 1007.1
20260508044427 49 225 11.3 23.5 0.00 0.01 0.00 73 1007.4
20260508043422 49 180 12.2 19.1 0.00 0.01 0.00 73 1007.3
20260508042417 49 225 6.1 21.7 0.00 0.01 0.00 76 1007.6
20260508041410 49 270 7.0 17.4 0.00 0.01 0.00 77 1007.5
20260508040403 49 270 7.8 15.6 0.00 0.01 0.00 78 1007.3
20260508035357 48 225 4.3 19.1 0.00 0.01 0.00 80 1007.3
20260508034350 48 248 7.0 15.6 0.00 0.01 0.00 79 1007.0
20260508033344 48 248 8.7 15.6 0.00 0.01 0.00 80 1007.1
20260508032338 48 248 5.2 17.4 0.00 0.01 0.00 81 1007.4
20260508031332 48 248 5.2 20.0 0.00 0.01 0.00 82 1007.2
20260508030326 48 225 9.6 20.0 0.00 0.01 0.00 83 1007.4
20260508024313 48 248 7.0 18.2 0.00 0.01 0.01 85 1007.4
20260508023306 47 248 3.5 14.8 0.00 0.01 0.01 86 1007.4
20260508022300 47 248 8.7 18.2 0.00 0.01 0.01 88 1007.6
20260508021255 47 180 8.7 17.4 0.00 0.01 0.01 89 1007.3
20260508020248 47 248 9.6 20.9 0.00 0.01 0.01 90 1007.5
20260508015242 47 270 12.2 25.2 0.00 0.01 0.01 91 1007.4
20260508014236 47 225 11.3 20.9 0.00 0.01 0.01 93 1007.2
20260508013231 47 248 9.6 23.5 0.00 0.01 0.01 94 1007.8
20260508012224 48 225 9.6 19.1 0.00 0.01 0.01 94 1007.6
20260508011219 48 248 8.7 18.2 0.00 0.01 0.01 95 1007.3
20260508010211 48 225 7.0 23.5 0.00 0.01 0.01 95 1007.4
20260508005204 48 203 7.0 17.4 0.00 0.01 0.01 95 1007.5
20260508004159 49 225 9.6 21.7 0.00 0.01 0.01 95 1007.5
20260508003153 49 225 8.7 20.0 0.00 0.01 0.01 95 1007.4
20260508002147 49 270 10.4 20.9 0.00 0.01 0.01 94 1007.5
20260508001141 50 248 9.6 23.5 0.00 0.01 0.01 92 1007.4
20260508000134 50 270 9.6 20.0 0.00 0.01 0.01 90 1007.4
20260507235128 51 248 13.9 25.2 0.00 0.01 0.01 90 1007.2
20260507234122 51 270 12.2 19.1 0.00 0.01 0.01 89 1007.3
20260507233118 51 293 7.8 19.1 0.00 0.01 0.01 90 1007.0
20260507232110 51 248 9.6 20.0 0.00 0.01 0.01 89 1007.4
20260507231103 51 248 9.6 25.2 0.00 0.01 0.01 89 1007.3
20260507230110 51 203 7.0 21.7 0.00 0.01 0.01 89 1007.1
20260507225050 52 270 13.9 20.0 0.00 0.02 0.01 90 1006.5
20260507224044 52 270 9.6 17.4 0.00 0.02 0.01 90 1006.5
20260507223051 52 248 8.7 18.2 0.00 0.02 0.01 89 1006.1
20260507222047 52 135 12.2 20.9 0.00 0.02 0.01 89 1006.3
20260507221033 52 225 7.0 19.1 0.00 0.02 0.01 89 1006.1
20260507220026 52 225 8.7 23.5 0.00 0.02 0.01 88 1005.9
20260507215014 52 315 9.6 23.5 0.00 0.02 0.01 87 1006.1
20260507214010 53 225 9.6 20.9 0.00 0.02 0.01 87 1006.0
20260507213001 53 248 9.6 20.0 0.00 0.02 0.01 87 1005.7
20260507211955 53 248 10.4 19.1 0.00 0.02 0.01 88 1005.8
20260507210949 53 270 9.6 23.5 0.00 0.02 0.01 88 1006.0
20260507205943 53 270 13.0 18.2 0.00 0.02 0.01 90 1005.9
20260507204936 53 270 9.6 23.5 0.00 0.02 0.01 89 1005.5
20260507203930 53 270 13.0 23.5 0.00 0.02 0.01 89 1005.7
20260507202926 53 270 12.2 25.2 0.00 0.02 0.01 88 1005.7
20260507201920 53 270 9.6 23.5 0.00 0.02 0.01 91 1005.3
20260507200912 53 270 13.0 23.5 0.00 0.02 0.01 94 1005.1
20260507195905 53 225 10.4 20.9 0.00 0.02 0.01 94 1004.9
20260507194858 53 0 8.7 20.9 0.00 0.02 0.01 95 1004.8
20260507193854 53 248 7.8 14.8 0.00 0.02 0.01 94 1004.9
20260507192846 54 248 7.0 14.8 0.00 0.02 0.01 93 1004.5
20260507191840 54 270 7.0 15.6 0.00 0.02 0.01 91 1005.2
20260507190833 55 270 8.7 18.2 0.00 0.02 0.01 89 1005.6
20260507185828 55 270 8.7 15.6 0.00 0.02 0.01 89 1005.9